Weather History for Monroe, MI

Change the Weather History Date:

Friday, April 26, 2013

  Actual Average Record
Temperature  
Mean Temperature 42 °F -  
Max Temperature 55 °F 62 °F 90 °F (1990)
Min Temperature 30 °F 42 °F 26 °F (1972)
Degree Days  
Heating Degree Days 22    
Moisture  
Dew Point 35 °F    
Average Humidity 70    
Maximum Humidity 100    
Minimum Humidity 47    
Precipitation  
Precipitation 0.00 in - - ()
Sea Level Pressure  
Sea Level Pressure 30.39 in    
Wind  
Wind Speed 3 mph (SE)    
Max Wind Speed 12 mph    
Max Gust Speed -    
Visibility 10 miles    
Events      
Averages and records for this station are not official NWS values.
T = Trace of Precipitation, MM = Missing Value Source: NWS Daily Summary

Daily Weather History Graph

Daily Weather History Graph

Search for Another Location

Airport:

Trip Planner

Search our weather history database for the weather conditions in past years. The results will help you decide how hot, cold, wet, or windy it might be!

Date:

Astronomy

Apr. 26, 2013 Rise Set
Actual Time 6:36 AM EDT 8:27 PM EDT
Civil Twilight 6:06 AM EDT 8:57 PM EDT
Nautical Twilight 5:30 AM EDT 9:33 PM EDT
Astronomical Twilight 4:50 AM EDT 10:13 PM EDT
Moon 9:50 PM EDT (4/26) 7:02 AM EDT (4/26)
Length of Visible Light 14h 50m
Length of Day
13h 50m
Full, 99% of the Moon is Illuminated
Apr 26
Full
May 2
Last Quarter
May 9
New
May 18
First Quarter
May 25
Full

Hourly Weather History & Observations

Time (EDT) Temp. Windchill Dew Point Humidity Pressure Visibility Wind Dir Wind Speed Gust Speed Precip Events Conditions
12:12 AM 37.4 °F - 32.0 °F 81% 30.35 in 10.0 mi Calm Calm - N/A   Clear
12:33 AM 37.4 °F - 33.8 °F 87% 30.35 in 10.0 mi Calm Calm - N/A   Clear
12:53 AM 35.6 °F - 32.0 °F 87% 30.36 in 10.0 mi Calm Calm - N/A   Clear
1:13 AM 35.6 °F - 32.0 °F 87% 30.36 in 10.0 mi Calm Calm - N/A   Clear
1:33 AM 35.6 °F - 32.0 °F 87% 30.37 in 10.0 mi Calm Calm - N/A   Clear
1:53 AM 35.6 °F - 32.0 °F 87% 30.37 in 10.0 mi Calm Calm - N/A   Clear
2:13 AM 35.6 °F - 32.0 °F 87% 30.37 in 10.0 mi Calm Calm - N/A   Clear
2:33 AM 35.6 °F - 30.2 °F 81% 30.37 in 10.0 mi Calm Calm - N/A   Clear
3:13 AM 33.8 °F - 32.0 °F 93% 30.36 in 10.0 mi Calm Calm - N/A   Clear
3:33 AM 33.8 °F - 32.0 °F 93% 30.36 in 10.0 mi Calm Calm - N/A   Clear
3:53 AM 33.8 °F - 30.2 °F 87% 30.36 in 10.0 mi Calm Calm - N/A   Clear
4:14 AM 33.8 °F - 32.0 °F 93% 30.37 in 10.0 mi Calm Calm - N/A   Clear
4:36 AM 33.8 °F - 30.2 °F 87% 30.38 in 10.0 mi Calm Calm - N/A   Clear
4:56 AM 33.8 °F - 32.0 °F 93% 30.38 in 10.0 mi Calm Calm - N/A   Clear
5:16 AM 32.0 °F - 30.2 °F 93% 30.39 in 7.0 mi Calm Calm - N/A   Clear
5:31 AM 32.0 °F - 30.2 °F 93% 30.39 in 7.0 mi Calm Calm - N/A   Clear
5:51 AM 30.2 °F - 30.2 °F 100% 30.40 in 7.0 mi Calm Calm - N/A   Clear
6:12 AM 30.2 °F - 30.2 °F 100% 30.40 in 10.0 mi Calm Calm - N/A   Clear
6:32 AM 32.0 °F - 30.2 °F 93% 30.40 in 7.0 mi Calm Calm - N/A   Clear
6:52 AM 32.0 °F - 30.2 °F 93% 30.41 in 5.0 mi Calm Calm - N/A   Clear
7:12 AM 32.0 °F - 30.2 °F 93% 30.42 in 7.0 mi Calm Calm - N/A   Clear
7:32 AM 33.8 °F - 32.0 °F 93% 30.42 in 7.0 mi Calm Calm - N/A   Clear
7:53 AM 35.6 °F - 33.8 °F 93% 30.42 in 10.0 mi Calm Calm - N/A   Clear
8:13 AM 37.4 °F - 33.8 °F 87% 30.43 in 10.0 mi Calm Calm - N/A   Clear
8:33 AM 41.0 °F - 35.6 °F 81% 30.44 in 10.0 mi Calm Calm - N/A   Clear
8:53 AM 42.8 °F 41.1 °F 33.8 °F 70% 30.44 in 10.0 mi SSW 3.5 mph - N/A   Clear
9:14 AM 46.4 °F 44.3 °F 33.8 °F 62% 30.44 in 10.0 mi South 4.6 mph - N/A   Clear
9:34 AM 48.2 °F - 33.8 °F 58% 30.45 in 10.0 mi South 8.1 mph - N/A   Clear
9:54 AM 48.2 °F - 33.8 °F 58% 30.45 in 10.0 mi South 8.1 mph - N/A   Clear
10:14 AM 50.0 °F - 33.8 °F 54% 30.45 in 10.0 mi SSW 8.1 mph - N/A   Clear
10:34 AM 50.0 °F - 33.8 °F 54% 30.46 in 10.0 mi South 8.1 mph - N/A   Clear
10:54 AM 51.8 °F - 32.0 °F 47% 30.46 in 10.0 mi South 6.9 mph - N/A   Clear
11:14 AM 51.8 °F - 33.8 °F 50% 30.45 in 10.0 mi SSE 8.1 mph - N/A   Clear
11:34 AM 51.8 °F - 33.8 °F 50% 30.46 in 10.0 mi SSE 8.1 mph - N/A   Clear
11:54 AM 51.8 °F - 33.8 °F 50% 30.45 in 10.0 mi SE 8.1 mph - N/A   Clear
12:14 PM 51.8 °F - 33.8 °F 50% 30.45 in 10.0 mi SSE 9.2 mph - N/A   Clear
12:34 PM 53.6 °F - 33.8 °F 47% 30.44 in 10.0 mi SSE 9.2 mph - N/A   Clear
12:54 PM 53.6 °F - 33.8 °F 47% 30.45 in 10.0 mi SE 10.4 mph - N/A   Clear
1:15 PM 53.6 °F - 33.8 °F 47% 30.44 in 10.0 mi SE 10.4 mph - N/A   Clear
1:35 PM 55.4 °F - 35.6 °F 47% 30.43 in 10.0 mi SSE 6.9 mph - N/A   Clear
1:55 PM 53.6 °F - 35.6 °F 51% 30.43 in 10.0 mi SSE 10.4 mph - N/A   Clear
2:15 PM 55.4 °F - 37.4 °F 51% 30.42 in 10.0 mi SE 8.1 mph - N/A   Clear
2:35 PM 55.4 °F - 37.4 °F 51% 30.41 in 10.0 mi ESE 10.4 mph - N/A   Clear
2:55 PM 55.4 °F - 37.4 °F 51% 30.41 in 10.0 mi SE 9.2 mph - N/A   Clear
3:15 PM 55.4 °F - 37.4 °F 51% 30.41 in 10.0 mi SSE 11.5 mph - N/A   Clear
3:35 PM 55.4 °F - 35.6 °F 47% 30.40 in 10.0 mi SE 6.9 mph - N/A   Clear
3:56 PM 55.4 °F - 37.4 °F 51% 30.40 in 10.0 mi SE 9.2 mph - N/A   Clear
4:16 PM 55.4 °F - 37.4 °F 51% 30.38 in 10.0 mi East 10.4 mph - N/A   Clear
4:36 PM 55.4 °F - 39.2 °F 54% 30.37 in 10.0 mi ESE 10.4 mph - N/A   Clear
4:56 PM 55.4 °F - 37.4 °F 51% 30.36 in 10.0 mi ESE 10.4 mph - N/A   Clear
5:16 PM 55.4 °F - 37.4 °F 51% 30.35 in 10.0 mi ESE 10.4 mph - N/A   Clear
5:36 PM 55.4 °F - 37.4 °F 51% 30.35 in 10.0 mi ESE 6.9 mph - N/A   Clear
5:56 PM 55.4 °F - 37.4 °F 51% 30.36 in 10.0 mi ESE 9.2 mph - N/A   Clear
6:11 PM 55.4 °F - 37.4 °F 51% 30.36 in 10.0 mi ESE 9.2 mph - N/A   Clear
6:31 PM 55.4 °F - 37.4 °F 51% 30.36 in 10.0 mi ESE 6.9 mph - N/A   Clear
6:52 PM 53.6 °F - 37.4 °F 54% 30.36 in 10.0 mi ESE 6.9 mph - N/A   Clear
7:12 PM 53.6 °F - 37.4 °F 54% 30.35 in 10.0 mi ESE 8.1 mph - N/A   Clear
7:32 PM 51.8 °F - 39.2 °F 62% 30.35 in 10.0 mi ESE 6.9 mph - N/A   Clear
7:52 PM 51.8 °F - 39.2 °F 62% 30.35 in 10.0 mi ESE 8.1 mph - N/A   Clear
8:12 PM 51.8 °F - 37.4 °F 58% 30.35 in 10.0 mi SE 9.2 mph - N/A   Clear
8:32 PM 50.0 °F - 39.2 °F 66% 30.35 in 10.0 mi SE 5.8 mph - N/A   Clear
8:52 PM 48.2 °F - 39.2 °F 71% 30.35 in 10.0 mi SE 5.8 mph - N/A   Clear
9:12 PM 48.2 °F - 39.2 °F 71% 30.36 in 10.0 mi ESE 4.6 mph - N/A   Clear
9:32 PM 48.2 °F - 41.0 °F 76% 30.36 in 10.0 mi SE 5.8 mph - N/A   Clear
9:52 PM 48.2 °F - 41.0 °F 76% 30.36 in 10.0 mi SE 5.8 mph - N/A   Clear
10:13 PM 48.2 °F - 41.0 °F 76% 30.37 in 10.0 mi SE 4.6 mph - N/A   Clear
10:33 PM 46.4 °F 45.2 °F 41.0 °F 81% 30.37 in 10.0 mi SE 3.5 mph - N/A   Clear
10:53 PM 46.4 °F - 41.0 °F 81% 30.37 in 10.0 mi Calm Calm - N/A   Clear
11:13 PM 46.4 °F 45.2 °F 41.0 °F 81% 30.37 in 10.0 mi SE 3.5 mph - N/A   Clear
11:33 PM 46.4 °F 45.2 °F 41.0 °F 81% 30.36 in 10.0 mi SE 3.5 mph - N/A   Clear
11:53 PM 46.4 °F - 41.0 °F 81% 30.36 in 10.0 mi Calm Calm - N/A   Clear